This demonstration page uses our WeatherBlox Daily Observations layout. Learn more.

Left ArrowRight Arrow

39.29038, -76.61219

Hourly Observations for January 7, 2023

Temp ( °F °C ) Dew Point ( °F °C ) Humidity (%) Winds ( mph kmh ) Pressure ( in mb ) Visibility ( mi km ) Precip ( " mm )
12:54 am 00:54 undefined 44 6.7 29 -1.7 55 55 undefined N/A 30.21 1023 N/A 0.00 0.00
1:54 am 01:54 undefined 43 6.1 29 -1.7 57 57 undefined N/A 30.20 1023 N/A 0.00 0.00
2:54 am 02:54 undefined 43 6.1 29 -1.7 57 57 undefined N/A 30.22 1023 N/A 0.00 0.00
3:54 am 03:54 undefined 43 6.1 29 -1.7 57 57 undefined N/A 30.20 1023 N/A 0.00 0.00
4:54 am 04:54 undefined 43 6.1 30 -1.1 60 60 undefined N/A 30.20 1023 N/A 0.00 0.00
5:54 am 05:54 undefined 43 6.1 30 -1.1 60 60 undefined N/A 30.22 1023 N/A 0.00 0.00
6:54 am 06:54 undefined 42 5.6 30 -1.1 62 62 undefined N/A 30.22 1023 N/A 0.00 0.00
7:54 am 07:54 undefined 41 5 30 -1.1 65 65 undefined N/A 30.23 1024 N/A 0.00 0.00
8:54 am 08:54 undefined 43 6.1 31 -0.6 62 62 undefined N/A 30.24 1024 N/A 0.00 0.00
9:54 am 09:54 undefined 46 7.8 28 -2.2 49 49 undefined N/A 30.25 1024 N/A 0.00 0.00
10:54 am 10:54 undefined 47 8.3 27 -2.8 45 45 undefined N/A 30.24 1024 N/A 0.00 0.00
11:54 am 11:54 undefined 48 8.9 27 -2.8 44 44 undefined N/A 30.22 1023 N/A 0.00 0.00
12:54 pm 12:54 undefined 48 8.9 26 -3.3 42 42 undefined N/A 30.20 1023 N/A 0.00 0.00
1:54 pm 13:54 undefined 49 9.4 25 -3.9 39 39 undefined N/A 30.19 1022 N/A 0.00 0.00
2:54 pm 14:54 undefined 48 8.9 25 -3.9 40 40 undefined N/A 30.19 1023 N/A 0.00 0.00
3:54 pm 15:54 undefined 48 8.9 26 -3.3 42 42 undefined N/A 30.22 1023 N/A 0.00 0.00
4:54 pm 16:54 undefined 47 8.3 25 -3.9 42 42 undefined N/A 30.24 1024 N/A 0.00 0.00
5:54 pm 17:54 undefined 46 7.8 26 -3.3 45 45 undefined N/A 30.27 1025 N/A 0.00 0.00
6:54 pm 18:54 undefined 44 6.7 26 -3.3 49 49 undefined N/A 30.29 1026 N/A 0.00 0.00
7:54 pm 19:54 undefined 43 6.1 27 -2.8 53 53 undefined N/A 30.31 1026 N/A 0.00 0.00
8:54 pm 20:54 undefined 42 5.6 27 -2.8 55 55 undefined N/A 30.32 1027 N/A 0.00 0.00
9:54 pm 21:54 undefined 41 5 26 -3.3 55 55 undefined N/A 30.32 1027 N/A 0.00 0.00
10:54 pm 22:54 undefined 40 4.4 26 -3.3 57 57 undefined N/A 30.32 1027 N/A 0.00 0.00
11:54 pm 23:54 undefined 39 3.9 26 -3.3 59 59 undefined N/A 30.35 1028 N/A 0.00 0.00

Powered by AerisWeather